Regional Weather Roundup
Issued by NWS

Home | Current Version | Previous Version | Text Only | Print | Product List | Glossary Off
Versions: 1 2 3 4 5 6 7 8 9 10 11 12 13 14 15 16 17 18 19 20 21 22 23 24 25 26 27 28 29 30 31 32 33 34 35 36 37 38 39 40 41 42 43 44 45 46 47 48 49 50

000
ASUS44 KMEG 051810
RWRTN
TENNESSEE HOURLY STATE WEATHER ROUNDUP
NATIONAL WEATHER SERVICE MEMPHIS TN
100 PM CDT SUN JUL 05 2015

TNZ002-004-019-021-049-052-054-088>092-051900-
WEST TENNESSEE

CITY           SKY/WX    TMP DP  RH WIND       PRES   REMARKS
MEMPHIS INTL   PTSUNNY   80  70  71 S10       30.10S
NWS MEMPHIS      N/A     83 N/A N/A MISG        N/A
JACKSON        PTSUNNY   82  71  69 SW8       30.09R
DYERSBURG        N/A    N/A N/A N/A MISG        N/A
PARIS          MOSUNNY   81  68  65 W3        30.10S
LEXINGTON      MOSUNNY   81  70  69 SW3       30.09S
$$

TNZ008-025-027-028-033-062-065-066-051900-
NORTH MIDDLE TENNESSEE

CITY           SKY/WX    TMP DP  RH WIND       PRES   REMARKS
NASHVILLE      PTSUNNY   81  71  71 CALM      30.10R
CLARKSVILLE    PTSUNNY   82  66  58 VRB6      30.08S
SMYRNA         MOSUNNY   82  71  69 W9        30.10R
COOKEVILLE     PTSUNNY   81  72  74 W6        30.09R
CROSSVILLE     PTSUNNY   76  65  68 NW8       30.12S
$$

TNZ061-075-076-078-094-096-097-051900-
SOUTH MIDDLE TENNESSEE

CITY           SKY/WX    TMP DP  RH WIND       PRES   REMARKS
FAYETTEVILLE     N/A     79  68  69 SW7       30.12F
TULLAHOMA      MOSUNNY   79  68  69 CALM      30.12F
WINCHESTER     PTSUNNY   79  70  73 VRB5      30.12F
MCMINNVILLE    MOSUNNY   79  68  69 W9        30.11S
COLUMBIA       MOSUNNY   82  72  69 CALM      30.09F
SHELBYVILLE    MOSUNNY   82  73  74 W10         N/A
$$

TNZ017-018-042-046-047-051900-
NORTHEAST TENNESSEE

CITY           SKY/WX    TMP DP  RH WIND       PRES   REMARKS
TRI CITIES     PTSUNNY   84  63  49 S10       30.05F
ELIZABETHTON   PTCLDY    84  63  48 SW9       30.05F
$$

TNZ012-013-036-069-073-074-051900-
CENTRAL EAST TENNESSEE

CITY           SKY/WX    TMP DP  RH WIND       PRES   REMARKS
KNOXVILLE      CLOUDY    76  67  73 SW18      30.06F
OAK RIDGE      LGT RAIN  74  67  78 VRB3      30.08S
GATLINBURG     CLOUDY    79  66  65 VRB6      30.05S
MORRISTOWN     PTCLDY    77  66  69 SW6       30.07F
$$

TNZ083-085-099-051900-
SOUTHEAST TENNESSEE

CITY           SKY/WX    TMP DP  RH WIND       PRES   REMARKS
CHATTANOOGA    PTSUNNY   80  67  64 W12       30.10F
$$

SKY/WX REPORTED AS FAIR MEANS FEW OR NO CLOUDS BELOW
12 THOUSAND FEET.



USA.gov is the U.S. government's official web portal to all federal, state and local government web resources and services.